Ogden Hill AFB, UT

1:35 AM MDT on March 30, 2017 (GMT -0600)
Hill Air Force Base

Weather History for KHIF - November, 2013

Change the Weather History Date:

Sunday, November 10, 2013

  Actual Average Record
Temperature  
Mean Temperature 49 °F -  
Max Temperature 60 °F 45 °F 62 °F (2007)
Min Temperature 38 °F 31 °F 21 °F (2000)
Degree Days  
Heating Degree Days 16    
Moisture  
Dew Point 25 °F    
Average Humidity 38    
Maximum Humidity 57    
Minimum Humidity 23    
Precipitation  
Precipitation 0.00 in - - ()
Sea Level Pressure  
Sea Level Pressure 30.23 in    
Wind  
Wind Speed 11 mph (SE)    
Max Wind Speed 20 mph    
Max Gust Speed -    
Visibility 8 miles    
Events      
Averages and records for this station are not official NWS values.
T = Trace of Precipitation, MM = Missing Value Source: NWS Daily Summary

Daily Weather History Graph

Daily Weather History Graph

Search for Another Location

Airport or City:

Trip Planner

Search our weather history database for the weather conditions in past years. The results will help you decide how hot, cold, wet, or windy it might be!

Date:

Astronomy

Nov. 10, 2013 Rise Set
Actual Time 7:10 AM MST 5:13 PM MST
Civil Twilight 6:40 AM MST 5:42 PM MST
Nautical Twilight 6:07 AM MST 6:15 PM MST
Astronomical Twilight 5:35 AM MST 6:47 PM MST
Moon 1:24 PM MST (11/10) No Moon Set
Length of Visible Light 11h 01m
Length of Day
10h 03m
First Quarter, 56% of the Moon is Illuminated
Nov 10
First Quarter
Nov 17
Full
Nov 25
Last Quarter
Dec 2
New
Dec 9
First Quarter

Hourly Weather History & Observations

Time (MST) Temp. Windchill Dew Point Humidity Pressure Visibility Wind Dir Wind Speed Gust Speed Precip Events Conditions
12:58 AM 43.3 °F 36.1 °F 25.5 °F 49% 30.17 in 10.0 mi ESE 15.0 mph - N/A   Clear
1:58 AM 41.5 °F 33.8 °F 25.2 °F 52% 30.18 in 10.0 mi ESE 15.0 mph - N/A   Partly Cloudy
2:58 AM 41.2 °F 33.4 °F 25.0 °F 53% 30.17 in 10.0 mi ESE 15.0 mph - N/A   Partly Cloudy
3:58 AM 40.6 °F 32.0 °F 24.4 °F 53% 30.19 in 10.0 mi ESE 17.3 mph - N/A   Clear
4:58 AM 39.2 °F 30.5 °F 24.4 °F 56% 30.21 in 10.0 mi ESE 16.1 mph - N/A   Clear
5:58 AM 38.8 °F 30.0 °F 23.9 °F 55% 30.23 in 10.0 mi ESE 16.1 mph - N/A   Clear
6:58 AM 38.8 °F 30.4 °F 24.1 °F 55% 30.24 in 10.0 mi ESE 15.0 mph - N/A   Clear
7:58 AM 38.1 °F 29.1 °F 23.9 °F 57% 30.26 in 10.0 mi ESE 16.1 mph - N/A   Clear
8:58 AM 40.8 °F 31.7 °F 23.9 °F 51% 30.27 in 10.0 mi ESE 19.6 mph - N/A   Clear
9:58 AM 46.8 °F - 25.3 °F 43% 30.25 in 10.0 mi East 10.4 mph - N/A   Clear
10:58 AM 51.3 °F - 26.1 °F 38% 30.25 in 10.0 mi Calm Calm - N/A   Clear
11:58 AM 56.1 °F - 25.9 °F 31% 30.23 in 10.0 mi West 1.2 mph - N/A   Clear
12:18 PM 57.2 °F - 24.8 °F 29% 30.28 in 4.0 mi WSW 1.2 mph - N/A   Haze
12:48 PM 59.0 °F - 24.8 °F 27% 30.27 in 2.5 mi SSE 6.9 mph - N/A   Haze
12:58 PM 59.0 °F - 24.8 °F 27% 30.20 in 2.0 mi South 4.6 mph - N/A   Haze
1:03 PM 57.2 °F - 26.6 °F 31% 30.26 in 3.0 mi Variable 3.5 mph - N/A   Haze
1:08 PM 59.0 °F - 26.6 °F 29% 30.26 in 5.0 mi SW 5.8 mph - N/A   Haze
1:23 PM 59.0 °F - 26.6 °F 29% 30.26 in 5.0 mi SSW 5.8 mph - N/A   Haze
1:28 PM 59.0 °F - 26.6 °F 29% 30.26 in 4.0 mi South 6.9 mph - N/A   Haze
1:38 PM 59.0 °F - 24.8 °F 27% 30.25 in 2.5 mi SSE 5.8 mph - N/A   Haze
1:48 PM 59.0 °F - 26.6 °F 29% 30.25 in 4.0 mi South 4.6 mph - N/A   Haze
1:58 PM 59.0 °F - 26.6 °F 29% 30.19 in 5.0 mi South 5.8 mph - N/A   Haze
2:08 PM 59.0 °F - 26.6 °F 29% 30.25 in 4.0 mi Variable 4.6 mph - N/A   Haze
2:33 PM 59.0 °F - 24.8 °F 27% 30.25 in 6.0 mi South 2.3 mph - N/A   Haze
2:43 PM 60.8 °F - 23.0 °F 23% 30.24 in 4.0 mi WSW 3.5 mph - N/A   Haze
2:48 PM 60.8 °F - 23.0 °F 23% 30.24 in 5.0 mi Variable 2.3 mph - N/A   Haze
2:58 PM 59.5 °F - 23.5 °F 25% 30.18 in 9.0 mi SSW 4.6 mph - N/A   Clear
3:58 PM 59.7 °F - 23.2 °F 25% 30.18 in 9.0 mi WNW 2.3 mph - N/A   Clear
4:58 PM 56.7 °F - 33.1 °F 41% 30.19 in 10.0 mi NNW 5.8 mph - N/A   Clear
5:58 PM 52.7 °F - 33.3 °F 48% 30.20 in 10.0 mi North 5.8 mph - N/A   Clear
6:58 PM 49.5 °F - 33.6 °F 54% 30.22 in 10.0 mi NNE 2.3 mph - N/A   Clear
7:58 PM 46.6 °F - 24.3 °F 42% 30.23 in 10.0 mi ESE 10.4 mph - N/A   Clear
8:58 PM 47.8 °F - 23.2 °F 38% 30.22 in 10.0 mi ESE 10.4 mph - N/A   Clear
9:58 PM 47.1 °F - 22.6 °F 38% 30.21 in 10.0 mi ESE 18.4 mph - N/A   Clear
10:58 PM 45.9 °F 39.1 °F 22.5 °F 40% 30.20 in 10.0 mi ESE 16.1 mph - N/A   Clear
11:58 PM 44.8 °F 36.9 °F 21.6 °F 40% 30.20 in 10.0 mi ESE 19.6 mph - N/A   Clear